TimeEST,TemperatureF,Dew PointF,Humidity,Sea Level PressureIn,VisibilityMPH,Wind Direction,Wind SpeedMPH,Gust SpeedMPH,PrecipitationIn,Events,Conditions,WindDirDegrees,DateUTC
12:54 AM,39.0,28.9,67,30.19,10.0,NE,3.5,-,N/A,,Overcast,40,2013-01-11 05:54:00
1:54 AM,39.0,30.0,70,30.18,10.0,Calm,Calm,-,N/A,,Overcast,0,2013-01-11 06:54:00
2:54 AM,39.0,30.9,73,30.15,10.0,Calm,Calm,-,0.00,Rain,Light Rain,0,2013-01-11 07:54:00
3:54 AM,37.9,32.0,79,30.13,6.0,Calm,Calm,-,0.00,Rain,Light Rain,0,2013-01-11 08:54:00
4:54 AM,37.0,35.1,93,30.09,6.0,Calm,Calm,-,0.05,,Overcast,0,2013-01-11 09:54:00
5:54 AM,37.9,36.0,93,30.06,6.0,Calm,Calm,-,0.00,,Mostly Cloudy,0,2013-01-11 10:54:00
6:54 AM,48.9,42.1,77,30.02,7.0,South,10.4,-,0.02,Rain,Light Rain,180,2013-01-11 11:54:00
7:54 AM,48.9,44.1,83,29.99,10.0,SSE,3.5,-,0.04,,Overcast,160,2013-01-11 12:54:00
8:50 AM,48.2,44.6,87,29.97,2.5,Variable,3.5,-,0.11,Rain-Thunderstorm,Rain,0,2013-01-11 13:50:00
8:54 AM,48.0,46.0,93,29.99,1.8,SW,3.5,-,0.13,Rain-Thunderstorm,Heavy Rain,230,2013-01-11 13:54:00
9:04 AM,48.2,46.4,93,29.96,2.5,SSE,5.8,-,0.05,Rain-Thunderstorm,Rain,160,2013-01-11 14:04:00
9:12 AM,48.2,46.4,93,29.95,3.0,SE,3.5,-,0.07,Rain,Light Rain,140,2013-01-11 14:12:00
9:54 AM,51.1,48.0,89,29.98,8.0,SSW,8.1,-,0.12,Rain,Light Rain,210,2013-01-11 14:54:00
10:01 AM,51.8,48.2,88,29.97,6.0,South,8.1,-,0.00,Rain,Light Rain,190,2013-01-11 15:01:00
10:08 AM,51.8,48.2,88,29.97,5.0,South,5.8,-,0.01,Rain,Light Rain,180,2013-01-11 15:08:00
10:23 AM,51.8,48.2,88,29.98,9.0,SW,8.1,-,0.01,Rain,Light Rain,220,2013-01-11 15:23:00
10:54 AM,52.0,48.9,89,29.98,5.0,South,8.1,-,0.02,Rain,Light Rain,190,2013-01-11 15:54:00
11:07 AM,51.8,50.0,94,29.95,4.0,South,11.5,-,0.02,Rain,Light Rain,180,2013-01-11 16:07:00
11:54 AM,55.9,52.0,87,29.93,10.0,South,12.7,-,0.04,,Partly Cloudy,180,2013-01-11 16:54:00
12:50 PM,57.2,51.8,82,29.91,10.0,SSW,12.7,20.7,N/A,,Mostly Cloudy,210,2013-01-11 17:50:00
12:54 PM,57.9,52.0,81,29.91,10.0,SSW,15.0,-,N/A,,Mostly Cloudy,200,2013-01-11 17:54:00
1:54 PM,60.1,52.0,75,29.91,10.0,SW,15.0,25.3,N/A,,Overcast,220,2013-01-11 18:54:00
2:35 PM,60.8,51.8,72,29.91,10.0,SW,11.5,19.6,N/A,,Mostly Cloudy,230,2013-01-11 19:35:00
2:54 PM,59.0,51.1,75,29.93,10.0,SW,9.2,-,N/A,,Mostly Cloudy,220,2013-01-11 19:54:00
3:54 PM,59.0,48.9,69,29.94,10.0,SW,10.4,-,N/A,,Partly Cloudy,230,2013-01-11 20:54:00
4:54 PM,59.0,48.0,67,29.95,10.0,SW,8.1,-,N/A,,Scattered Clouds,230,2013-01-11 21:54:00
5:54 PM,55.0,48.0,77,29.96,10.0,SSW,5.8,-,N/A,,Mostly Cloudy,210,2013-01-11 22:54:00
6:54 PM,50.0,46.0,86,29.98,10.0,Calm,Calm,-,N/A,,Clear,0,2013-01-11 23:54:00
7:54 PM,45.0,44.1,97,29.98,8.0,Calm,Calm,-,N/A,,Clear,0,2013-01-12 00:54:00
8:54 PM,39.9,39.0,97,29.99,3.0,Calm,Calm,-,N/A,,Clear,0,2013-01-12 01:54:00
9:02 PM,42.8,39.2,87,29.98,1.8,Calm,Calm,-,N/A,,Clear,0,2013-01-12 02:02:00
9:08 PM,42.8,39.2,87,29.98,0.5,Calm,Calm,-,N/A,Fog,Fog,0,2013-01-12 02:08:00
9:37 PM,41.0,39.2,93,29.97,2.5,Calm,Calm,-,N/A,,Mostly Cloudy,0,2013-01-12 02:37:00
9:44 PM,39.2,39.2,100,29.97,4.0,Calm,Calm,-,N/A,,Mostly Cloudy,0,2013-01-12 02:44:00
9:47 PM,39.2,39.2,100,29.97,1.8,Calm,Calm,-,N/A,,Overcast,0,2013-01-12 02:47:00
9:54 PM,41.0,39.0,93,29.99,0.2,Calm,Calm,-,N/A,Fog,Fog,0,2013-01-12 02:54:00
10:14 PM,41.0,39.2,93,29.97,0.5,Calm,Calm,-,N/A,Fog,Fog,0,2013-01-12 03:14:00
10:26 PM,39.2,39.2,100,29.98,0.2,Calm,Calm,-,N/A,Fog,Fog,0,2013-01-12 03:26:00
10:54 PM,39.9,39.0,97,29.98,0.2,Calm,Calm,-,N/A,Fog,Fog,0,2013-01-12 03:54:00
11:54 PM,39.0,37.9,96,29.96,0.2,Calm,Calm,-,N/A,Fog,Fog,0,2013-01-12 04:54:00